When you browse on this site, cookies collect data to enhance your experience and personalize the content and advertising you see.
Visit our Privacy Policy to learn more. By continuing to use the site, you agree to this use of cookies and data.
  • In Italy
  • List of Countries
  • For 7 days
  • Water Temperature
  • Satellite Maps
  • Weather Map
  • Weather Widgets
  • user-avatar
    Login

    Hourly Weather Schelkunovka

    Today, 24 April, Wednesday

    Time Temperature Precipitation Wind Pressure Humidity
    00:00 +12°C° 0 mm 2 mps 749 mmHg 61%
    01:00 +12°C° 0 mm 2 mps 750 mmHg 63%
    02:00 +10°C° 0 mm 2 mps 750 mmHg 64%
    03:00 +10°C° 0 mm 2 mps 750 mmHg 65%
    04:00 +9°C° 0 mm 2 mps 750 mmHg 67%
    05:00 +9°C° 0 mm 2 mps 750 mmHg 69%
    06:00 +9°C° 0 mm 2 mps 750 mmHg 70%
    07:00 +10°C° 0 mm 3 mps 750 mmHg 65%
    08:00 +12°C° 0 mm 3 mps 750 mmHg 59%
    09:00 +14°C° 0 mm 3 mps 751 mmHg 54%
    10:00 +16°C° 0 mm 3 mps 751 mmHg 49%
    11:00 +18°C° 0 mm 3 mps 750 mmHg 45%
    12:00 +19°C° 0 mm 3 mps 750 mmHg 40%
    13:00 +20°C° 0 mm 3 mps 750 mmHg 39%
    14:00 +21°C° 0 mm 3 mps 750 mmHg 37%
    15:00 +21°C° 0 mm 3 mps 750 mmHg 36%
    16:00 +21°C° 0 mm 3 mps 750 mmHg 37%
    17:00 +21°C° 0 mm 3 mps 749 mmHg 38%
    18:00 +20°C° 0 mm 3 mps 749 mmHg 40%
    19:00 +19°C° 0 mm 2 mps 749 mmHg 43%
    20:00 +17°C° 0 mm 2 mps 749 mmHg 46%
    21:00 +16°C° 0 mm 2 mps 749 mmHg 50%
    22:00 +15°C° 0 mm 2 mps 749 mmHg 51%
    23:00 +15°C° 0 mm 2 mps 750 mmHg 53%

    Tomorrow, 25 April, Thursday

    Time Temperature Precipitation Wind Pressure Humidity
    00:00 +14°C° 0 mm 2 mps 750 mmHg 55%
    01:00 +13°C° 0 mm 2 mps 750 mmHg 57%
    02:00 +13°C° 0 mm 2 mps 750 mmHg 59%
    03:00 +12°C° 0 mm 2 mps 750 mmHg 61%
    04:00 +12°C° 0 mm 2 mps 750 mmHg 62%
    05:00 +12°C° 0 mm 2 mps 750 mmHg 64%
    06:00 +12°C° 0 mm 2 mps 750 mmHg 66%
    07:00 +13°C° 0 mm 2 mps 750 mmHg 61%
    08:00 +15°C° 0 mm 2 mps 750 mmHg 55%
    09:00 +17°C° 0 mm 2 mps 750 mmHg 50%
    10:00 +19°C° 0 mm 2 mps 750 mmHg 45%
    11:00 +20°C° 0 mm 2 mps 750 mmHg 41%
    12:00 +21°C° 0 mm 3 mps 750 mmHg 37%
    13:00 +22°C° 0 mm 3 mps 749 mmHg 36%
    14:00 +23°C° 0 mm 2 mps 749 mmHg 35%
    15:00 +24°C° 0 mm 2 mps 749 mmHg 34%
    16:00 +23°C° 0 mm 2 mps 748 mmHg 35%
    17:00 +23°C° 0 mm 2 mps 748 mmHg 37%
    18:00 +23°C° 0 mm 2 mps 748 mmHg 38%
    19:00 +22°C° 0 mm 1 mps 748 mmHg 42%
    20:00 +21°C° 0 mm 1 mps 748 mmHg 45%
    21:00 +19°C° 0 mm 1 mps 748 mmHg 48%
    22:00 +19°C° 0 mm 1 mps 748 mmHg 49%
    23:00 +19°C° 0 mm 1 mps 748 mmHg 50%

    Day after tomorrow, 26 April, Friday

    Time Temperature Precipitation Wind Pressure Humidity
    00:00 +18°C° 0 mm 1 mps 748 mmHg 51%
    01:00 +18°C° 0.3 mm 1 mps 748 mmHg 55%
    02:00 +16°C° 0.3 mm 1 mps 748 mmHg 59%
    03:00 +15°C° 0.3 mm 1 mps 747 mmHg 64%
    04:00 +15°C° 0.2 mm 1 mps 747 mmHg 66%
    05:00 +14°C° 0.2 mm 1 mps 747 mmHg 68%
    06:00 +14°C° 0.2 mm 1 mps 747 mmHg 70%
    07:00 +15°C° 0.6 mm 1 mps 747 mmHg 66%
    08:00 +16°C° 0.6 mm 1 mps 748 mmHg 62%
    09:00 +18°C° 0.6 mm 1 mps 748 mmHg 59%
    10:00 +19°C° 0.2 mm 1 mps 747 mmHg 55%
    11:00 +19°C° 0.2 mm 2 mps 747 mmHg 50%
    12:00 +21°C° 0.2 mm 3 mps 747 mmHg 46%
    13:00 +21°C° 0.3 mm 2 mps 747 mmHg 47%
    14:00 +21°C° 0.3 mm 2 mps 747 mmHg 47%
    15:00 +21°C° 0.3 mm 2 mps 746 mmHg 48%
    16:00 +20°C° 0 mm 2 mps 746 mmHg 49%
    17:00 +20°C° 0 mm 2 mps 746 mmHg 50%
    18:00 +20°C° 0 mm 2 mps 746 mmHg 52%
    19:00 +20°C° 0.7 mm 1 mps 745 mmHg 57%
    20:00 +18°C° 0.7 mm 1 mps 745 mmHg 63%
    21:00 +16°C° 0.7 mm 1 mps 745 mmHg 68%
    22:00 +15°C° 0 mm 1 mps 745 mmHg 70%
    23:00 +15°C° 0 mm 1 mps 745 mmHg 72%

    27 April, Saturday

    Time Temperature Precipitation Wind Pressure Humidity
    00:00 +14°C° 0 mm 1 mps 745 mmHg 74%
    01:00 +14°C° 0.1 mm 2 mps 744 mmHg 74%
    02:00 +14°C° 0.1 mm 2 mps 744 mmHg 74%
    03:00 +14°C° 0.1 mm 2 mps 744 mmHg 74%
    04:00 +14°C° 0.1 mm 2 mps 744 mmHg 75%
    05:00 +13°C° 0.1 mm 2 mps 744 mmHg 76%
    06:00 +13°C° 0.1 mm 2 mps 743 mmHg 78%
    07:00 +13°C° 0 mm 3 mps 743 mmHg 73%
    08:00 +14°C° 0 mm 3 mps 743 mmHg 68%
    09:00 +16°C° 0 mm 3 mps 743 mmHg 64%
    10:00 +18°C° 0 mm 3 mps 743 mmHg 56%
    11:00 +19°C° 0 mm 3 mps 742 mmHg 48%
    12:00 +21°C° 0 mm 4 mps 742 mmHg 40%
    13:00 +20°C° 0 mm 3 mps 742 mmHg 43%
    14:00 +20°C° 0 mm 3 mps 741 mmHg 45%
    15:00 +20°C° 0 mm 3 mps 741 mmHg 48%
    16:00 +20°C° 0 mm 2 mps 741 mmHg 51%
    17:00 +19°C° 0 mm 2 mps 740 mmHg 54%
    18:00 +19°C° 0 mm 2 mps 740 mmHg 57%
    19:00 +18°C° 0.3 mm 2 mps 740 mmHg 61%
    20:00 +17°C° 0.3 mm 2 mps 740 mmHg 65%
    21:00 +15°C° 0.3 mm 2 mps 740 mmHg 68%
    22:00 +15°C° 0 mm 2 mps 740 mmHg 70%
    23:00 +14°C° 0 mm 2 mps 740 mmHg 72%

    28 April, Sunday

    Time Temperature Precipitation Wind Pressure Humidity
    00:00 +14°C° 0 mm 2 mps 740 mmHg 74%
    01:00 +14°C° 0.3 mm 2 mps 740 mmHg 77%
    02:00 +13°C° 0.3 mm 1 mps 739 mmHg 80%
    03:00 +13°C° 0.3 mm 1 mps 739 mmHg 83%
    04:00 +13°C° 0.5 mm 2 mps 739 mmHg 85%
    05:00 +13°C° 0.5 mm 2 mps 739 mmHg 87%
    06:00 +13°C° 0.5 mm 2 mps 739 mmHg 89%
    07:00 +14°C° 0.1 mm 2 mps 739 mmHg 86%
    08:00 +14°C° 0.1 mm 2 mps 740 mmHg 82%
    09:00 +15°C° 0.1 mm 2 mps 740 mmHg 79%
    10:00 +16°C° 0.5 mm 2 mps 740 mmHg 75%
    11:00 +17°C° 0.5 mm 2 mps 740 mmHg 71%
    12:00 +18°C° 0.5 mm 3 mps 740 mmHg 67%
    13:00 +17°C° 0.6 mm 4 mps 741 mmHg 69%
    14:00 +15°C° 0.6 mm 5 mps 741 mmHg 71%
    15:00 +15°C° 0.6 mm 6 mps 741 mmHg 73%
    16:00 +14°C° 0 mm 6 mps 741 mmHg 71%
    17:00 +14°C° 0 mm 6 mps 741 mmHg 69%
    18:00 +14°C° 0 mm 6 mps 742 mmHg 67%
    19:00 +13°C° 0 mm 6 mps 742 mmHg 67%
    20:00 +10°C° 0 mm 5 mps 743 mmHg 67%
    21:00 +9°C° 0 mm 5 mps 743 mmHg 67%
    22:00 +8°C° 0 mm 5 mps 743 mmHg 64%
    23:00 +7°C° 0 mm 5 mps 744 mmHg 62%

    29 April, Monday

    Time Temperature Precipitation Wind Pressure Humidity
    00:00 +6°C° 0 mm 5 mps 744 mmHg 60%
    01:00 +6°C° 0 mm 5 mps 744 mmHg 62%
    02:00 +5°C° 0 mm 5 mps 744 mmHg 64%
    03:00 +3°C° 0 mm 5 mps 745 mmHg 66%
    04:00 +3°C° 0 mm 5 mps 745 mmHg 65%
    05:00 +2°C° 0 mm 5 mps 746 mmHg 65%
    06:00 +2°C° 0 mm 5 mps 746 mmHg 64%
    07:00 +3°C° 0 mm 5 mps 746 mmHg 58%
    08:00 +4°C° 0 mm 6 mps 747 mmHg 53%
    09:00 +5°C° 0 mm 7 mps 747 mmHg 47%
    10:00 +6°C° 0 mm 7 mps 747 mmHg 44%
    11:00 +8°C° 0 mm 6 mps 747 mmHg 42%
    12:00 +9°C° 0 mm 6 mps 747 mmHg 39%
    13:00 +9°C° 0 mm 6 mps 747 mmHg 39%
    14:00 +10°C° 0 mm 6 mps 747 mmHg 39%
    15:00 +10°C° 0 mm 5 mps 747 mmHg 39%
    16:00 +10°C° 0 mm 5 mps 747 mmHg 40%
    17:00 +9°C° 0 mm 5 mps 747 mmHg 41%
    18:00 +9°C° 0 mm 5 mps 747 mmHg 43%
    19:00 +8°C° 0 mm 4 mps 747 mmHg 47%
    20:00 +8°C° 0 mm 3 mps 747 mmHg 52%
    21:00 +5°C° 0 mm 3 mps 747 mmHg 56%
    22:00 +5°C° 0 mm 3 mps 748 mmHg 57%
    23:00 +4°C° 0 mm 3 mps 748 mmHg 58%
    Show more